Disclaimer

Please do not use the information listed here in-flight or in-navigation, as they are not provided to us by the airports but are provided by volunteers, so they might be outdated.

Search


Regions


Airport information page

No radio frequency information is available.

Airport informations:
Latitude: 16° 33' 23.74" N
Longitude: 104° 45' 34.31" E
Elevation: 509 feet - 155 meters
Operating hours: Remarks
Operating agency: Military-civil joint use airport
Timezone: UTC+7
Fuel: N/A

Runway information:
04/22 - 5358 x 125 feet< - >1633 x 38 meters

Recent METARs:
VLSK 171300Z 04008KT 2000 BR SCT040 BKN093 21/13 Q1017 NOSIG
VLSK 171300Z 04008KT 2000 BR SCT040 BKN093 21/13 Q1017 NOSIG
VLSK 171300Z 04008KT 2000 BR SCT040 BKN093 21/13 Q1017 NOSIG

Airport on the map: